Year,Month,Day,Hour,Minute,Value (Times are PST for temperature in C)
2017,01,19,00,00,7.60
2017,01,19,00,01,7.60
2017,01,19,00,02,7.60
2017,01,19,00,03,7.60
2017,01,19,00,04,7.60
2017,01,19,00,05,7.60
2017,01,19,00,06,7.60
2017,01,19,00,07,7.60
2017,01,19,00,08,7.60
2017,01,19,00,09,7.50
2017,01,19,00,10,7.50
2017,01,19,00,11,7.60
2017,01,19,00,12,7.60
2017,01,19,00,13,7.60
2017,01,19,00,14,7.60
2017,01,19,00,15,7.60
2017,01,19,00,16,7.60
2017,01,19,00,17,7.60
2017,01,19,00,18,7.60
2017,01,19,00,19,7.60
2017,01,19,00,20,7.60
2017,01,19,00,21,7.60
2017,01,19,00,22,7.60
2017,01,19,00,23,7.70
2017,01,19,00,24,7.70
2017,01,19,00,25,7.70
2017,01,19,00,26,7.70
2017,01,19,00,27,7.70
2017,01,19,00,28,7.70
2017,01,19,00,29,7.70
2017,01,19,00,30,7.80
2017,01,19,00,31,7.80
2017,01,19,00,32,7.80
2017,01,19,00,33,7.80
2017,01,19,00,34,7.80
2017,01,19,00,35,7.80
2017,01,19,00,36,7.80
2017,01,19,00,37,7.80
2017,01,19,00,38,7.80
2017,01,19,00,39,7.80
2017,01,19,00,40,7.80
2017,01,19,00,41,7.80
2017,01,19,00,42,7.80
2017,01,19,00,43,7.80
2017,01,19,00,44,7.80
2017,01,19,00,45,7.80
2017,01,19,00,46,7.80
2017,01,19,00,47,7.80
2017,01,19,00,48,7.80
2017,01,19,00,49,7.80
2017,01,19,00,50,7.80
2017,01,19,00,51,7.80
2017,01,19,00,52,7.80
2017,01,19,00,53,7.70
2017,01,19,00,54,7.70
2017,01,19,00,55,7.60
2017,01,19,00,56,7.60
2017,01,19,00,57,7.60
2017,01,19,00,58,7.60
2017,01,19,00,59,7.60
2017,01,19,01,00,7.50
2017,01,19,01,01,7.50
2017,01,19,01,02,7.50
2017,01,19,01,03,7.50
2017,01,19,01,04,7.50
2017,01,19,01,05,7.50
2017,01,19,01,06,7.50
2017,01,19,01,07,7.50
2017,01,19,01,08,7.40
2017,01,19,01,09,7.50
2017,01,19,01,10,7.40
2017,01,19,01,11,7.50
2017,01,19,01,12,7.50
2017,01,19,01,13,7.50
2017,01,19,01,14,7.50
2017,01,19,01,15,7.50
2017,01,19,01,16,7.50
2017,01,19,01,17,7.50
2017,01,19,01,18,7.50
2017,01,19,01,19,7.50
2017,01,19,01,20,7.50
2017,01,19,01,21,7.50
2017,01,19,01,22,7.50
2017,01,19,01,23,7.50
2017,01,19,01,24,7.50
2017,01,19,01,25,7.60
2017,01,19,01,26,7.60
2017,01,19,01,27,7.60
2017,01,19,01,28,7.60
2017,01,19,01,29,7.60
2017,01,19,01,30,7.60
2017,01,19,01,31,7.60
2017,01,19,01,32,7.60
2017,01,19,01,33,7.60
2017,01,19,01,34,7.60
2017,01,19,01,35,7.60
2017,01,19,01,36,7.60
2017,01,19,01,37,7.60
2017,01,19,01,38,7.60
2017,01,19,01,39,7.60
2017,01,19,01,40,7.60
2017,01,19,01,41,7.60
2017,01,19,01,42,7.60
2017,01,19,01,43,7.60
2017,01,19,01,44,7.60
2017,01,19,01,45,7.60
2017,01,19,01,46,7.60
2017,01,19,01,47,7.60
2017,01,19,01,48,7.60
2017,01,19,01,49,7.50
2017,01,19,01,50,7.50
2017,01,19,01,51,7.50
2017,01,19,01,52,7.50
2017,01,19,01,53,7.50
2017,01,19,01,54,7.50
2017,01,19,01,55,7.50
2017,01,19,01,56,7.50
2017,01,19,01,57,7.40
2017,01,19,01,58,7.40
2017,01,19,01,59,7.40
2017,01,19,02,00,7.40
2017,01,19,02,01,7.40
2017,01,19,02,02,7.40
2017,01,19,02,03,7.40
2017,01,19,02,04,7.40
2017,01,19,02,05,7.40
2017,01,19,02,06,7.40
2017,01,19,02,07,7.40
2017,01,19,02,08,7.40
2017,01,19,02,09,7.40
2017,01,19,02,10,7.40
2017,01,19,02,11,7.40
2017,01,19,02,12,7.40
2017,01,19,02,13,7.40
2017,01,19,02,14,7.40
2017,01,19,02,15,7.40
2017,01,19,02,16,7.40
2017,01,19,02,17,7.40
2017,01,19,02,18,7.40
2017,01,19,02,19,7.40
2017,01,19,02,20,7.40
2017,01,19,02,21,7.40
2017,01,19,02,22,7.40
2017,01,19,02,23,7.40
2017,01,19,02,24,7.40
2017,01,19,02,25,7.40
2017,01,19,02,26,7.40
2017,01,19,02,27,7.40
2017,01,19,02,28,7.40
2017,01,19,02,29,7.40
2017,01,19,02,30,7.40
2017,01,19,02,31,7.40
2017,01,19,02,32,7.40
2017,01,19,02,33,7.40
2017,01,19,02,34,7.40
2017,01,19,02,35,7.40
2017,01,19,02,36,7.50
2017,01,19,02,37,7.40
2017,01,19,02,38,7.40
2017,01,19,02,39,7.50
2017,01,19,02,40,7.50
2017,01,19,02,41,7.50
2017,01,19,02,42,7.50
2017,01,19,02,43,7.50
2017,01,19,02,44,7.50
2017,01,19,02,45,7.50
2017,01,19,02,46,7.50
2017,01,19,02,47,7.50
2017,01,19,02,48,7.50
2017,01,19,02,49,7.50
2017,01,19,02,50,7.50
2017,01,19,02,51,7.40
2017,01,19,02,52,7.40
2017,01,19,02,53,7.40
2017,01,19,02,54,7.40
2017,01,19,02,55,7.40
2017,01,19,02,56,7.40
2017,01,19,02,57,7.40
2017,01,19,02,58,7.40
2017,01,19,02,59,7.40
2017,01,19,03,00,7.40
2017,01,19,03,01,7.40
2017,01,19,03,02,7.40
2017,01,19,03,03,7.40
2017,01,19,03,04,7.40
2017,01,19,03,05,7.30
2017,01,19,03,06,7.20
2017,01,19,03,07,7.30
2017,01,19,03,08,7.30
2017,01,19,03,09,7.30
2017,01,19,03,10,7.30
2017,01,19,03,11,7.20
2017,01,19,03,12,7.00
2017,01,19,03,13,7.00
2017,01,19,03,14,7.00
2017,01,19,03,15,6.90
2017,01,19,03,16,6.90
2017,01,19,03,17,6.90
2017,01,19,03,18,6.90
2017,01,19,03,19,6.90
2017,01,19,03,20,6.90
2017,01,19,03,21,6.90
2017,01,19,03,22,6.90
2017,01,19,03,23,6.90
2017,01,19,03,24,6.90
2017,01,19,03,25,6.90
2017,01,19,03,26,6.90
2017,01,19,03,27,6.90
2017,01,19,03,28,6.80
2017,01,19,03,29,6.80
2017,01,19,03,30,6.80
2017,01,19,03,31,6.80
2017,01,19,03,32,6.80
2017,01,19,03,33,6.80
2017,01,19,03,34,6.80
2017,01,19,03,35,6.70
2017,01,19,03,36,6.70
2017,01,19,03,37,6.70
2017,01,19,03,38,6.70
2017,01,19,03,39,6.60
2017,01,19,03,40,6.50
2017,01,19,03,41,6.50
2017,01,19,03,42,6.50
2017,01,19,03,43,6.40
2017,01,19,03,44,6.40
2017,01,19,03,45,6.30
2017,01,19,03,46,6.30
2017,01,19,03,47,6.30
2017,01,19,03,48,6.20
2017,01,19,03,49,6.20
2017,01,19,03,50,6.20
2017,01,19,03,51,6.10
2017,01,19,03,52,6.10
2017,01,19,03,53,6.10
2017,01,19,03,54,6.10
2017,01,19,03,55,6.10
2017,01,19,03,56,6.10
2017,01,19,03,57,6.10
2017,01,19,03,58,6.10
2017,01,19,03,59,6.10
2017,01,19,04,00,6.10
2017,01,19,04,01,6.10
2017,01,19,04,02,6.10
2017,01,19,04,03,6.10
2017,01,19,04,04,6.10
2017,01,19,04,05,6.10
2017,01,19,04,06,6.00
2017,01,19,04,07,5.90
2017,01,19,04,08,5.80
2017,01,19,04,09,5.80
2017,01,19,04,10,5.80
2017,01,19,04,11,5.70
2017,01,19,04,12,5.60
2017,01,19,04,13,5.60
2017,01,19,04,14,5.50
2017,01,19,04,15,5.40
2017,01,19,04,16,5.40
2017,01,19,04,17,5.30
2017,01,19,04,18,5.30
2017,01,19,04,19,5.30
2017,01,19,04,20,5.20
2017,01,19,04,21,5.20
2017,01,19,04,22,5.10
2017,01,19,04,23,5.10
2017,01,19,04,24,5.10
2017,01,19,04,25,5.00
2017,01,19,04,26,5.00
2017,01,19,04,27,4.90
2017,01,19,04,28,4.90
2017,01,19,04,29,4.90
2017,01,19,04,30,4.80
2017,01,19,04,31,4.80
2017,01,19,04,32,4.80
2017,01,19,04,33,4.80
2017,01,19,04,34,4.80
2017,01,19,04,35,4.80
2017,01,19,04,36,4.80
2017,01,19,04,37,4.80
2017,01,19,04,38,4.80
2017,01,19,04,39,4.80
2017,01,19,04,40,4.70
2017,01,19,04,41,4.70
2017,01,19,04,42,4.70
2017,01,19,04,43,4.70
2017,01,19,04,44,4.70
2017,01,19,04,45,4.70
2017,01,19,04,46,4.70
2017,01,19,04,47,4.70
2017,01,19,04,48,4.70
2017,01,19,04,49,4.70
2017,01,19,04,50,4.70
2017,01,19,04,51,4.70
2017,01,19,04,52,4.70
2017,01,19,04,53,4.70
2017,01,19,04,54,4.70
2017,01,19,04,55,4.60
2017,01,19,04,56,4.60
2017,01,19,04,57,4.60
2017,01,19,04,58,4.60
2017,01,19,04,59,4.50
2017,01,19,05,00,4.40
2017,01,19,05,01,4.40
2017,01,19,05,02,4.40
2017,01,19,05,03,4.40
2017,01,19,05,04,4.40
2017,01,19,05,05,4.40
2017,01,19,05,06,4.50
2017,01,19,05,07,4.50
2017,01,19,05,08,4.50
2017,01,19,05,09,4.50
2017,01,19,05,10,4.50
2017,01,19,05,11,4.60
2017,01,19,05,12,4.60
2017,01,19,05,13,4.60
2017,01,19,05,14,4.60
2017,01,19,05,15,4.60
2017,01,19,05,16,4.60
2017,01,19,05,17,4.60
2017,01,19,05,18,4.60
2017,01,19,05,19,4.60
2017,01,19,05,20,4.60
2017,01,19,05,21,4.60
2017,01,19,05,22,4.70
2017,01,19,05,23,4.70
2017,01,19,05,24,4.70
2017,01,19,05,25,4.80
2017,01,19,05,26,4.80
2017,01,19,05,27,4.90
2017,01,19,05,28,4.90
2017,01,19,05,29,4.90
2017,01,19,05,30,4.80
2017,01,19,05,31,4.80
2017,01,19,05,32,4.80
2017,01,19,05,33,4.70
2017,01,19,05,34,4.70
2017,01,19,05,35,4.70
2017,01,19,05,36,4.70
2017,01,19,05,37,4.70
2017,01,19,05,38,4.70
2017,01,19,05,39,4.70
2017,01,19,05,40,4.70
2017,01,19,05,41,4.70
2017,01,19,05,42,4.70
2017,01,19,05,43,4.70
2017,01,19,05,44,4.70
2017,01,19,05,45,4.70
2017,01,19,05,46,4.70
2017,01,19,05,47,4.70
2017,01,19,05,48,4.70
2017,01,19,05,49,4.70
2017,01,19,05,50,4.70
2017,01,19,05,51,4.70
2017,01,19,09,49,6.70
2017,01,19,09,50,6.70
2017,01,19,09,51,6.80
2017,01,19,09,52,6.80
2017,01,19,09,53,6.80
2017,01,19,09,54,6.80
2017,01,19,09,55,6.90
2017,01,19,09,56,6.90
2017,01,19,09,57,6.90
2017,01,19,09,58,6.90
2017,01,19,09,59,6.90
2017,01,19,10,00,7.00
2017,01,19,10,01,7.00
2017,01,19,10,02,7.10
2017,01,19,10,03,7.10
2017,01,19,10,04,7.10
2017,01,19,10,05,7.10
2017,01,19,10,06,7.10
2017,01,19,10,07,7.20
2017,01,19,10,08,7.20
2017,01,19,10,09,7.30
2017,01,19,10,10,7.30
2017,01,19,10,11,7.30
2017,01,19,10,12,7.40
2017,01,19,10,13,7.40
2017,01,19,10,14,7.30
2017,01,19,10,15,7.30
2017,01,19,10,16,7.30
2017,01,19,10,17,7.20
2017,01,19,10,18,7.20
2017,01,19,10,19,7.20
2017,01,19,10,20,7.10
2017,01,19,10,21,7.10
2017,01,19,10,22,7.10
2017,01,19,10,23,7.10
2017,01,19,10,24,7.20
2017,01,19,10,25,7.20
2017,01,19,10,26,7.20
2017,01,19,10,27,7.20
2017,01,19,10,28,7.20
2017,01,19,10,29,7.20
2017,01,19,10,30,7.20
2017,01,19,10,31,7.30
2017,01,19,10,32,7.30
2017,01,19,10,33,7.20
2017,01,19,10,34,7.20
2017,01,19,10,35,7.20
2017,01,19,10,36,7.20
2017,01,19,10,37,7.20
2017,01,19,10,38,7.20
2017,01,19,10,39,7.20
2017,01,19,10,40,7.30
2017,01,19,10,41,7.30
2017,01,19,10,42,7.30
2017,01,19,10,43,7.30
2017,01,19,10,44,7.20
2017,01,19,10,45,7.20
2017,01,19,10,46,7.20
2017,01,19,10,47,7.20
2017,01,19,10,48,7.20
2017,01,19,10,49,7.30
2017,01,19,10,50,7.30
2017,01,19,10,51,7.30
2017,01,19,10,52,7.30
2017,01,19,10,53,7.30
2017,01,19,10,54,7.30
2017,01,19,10,55,7.30
2017,01,19,10,56,7.30
2017,01,19,10,57,7.30
2017,01,19,10,58,7.30
2017,01,19,10,59,7.30
2017,01,19,11,00,7.30
2017,01,19,11,01,7.30
2017,01,19,11,02,7.40
2017,01,19,11,03,7.40
2017,01,19,11,04,7.40
2017,01,19,11,05,7.40
2017,01,19,11,06,7.40
2017,01,19,11,07,7.40
2017,01,19,11,08,7.40
2017,01,19,11,09,7.40
2017,01,19,11,10,7.30
2017,01,19,11,11,7.30
2017,01,19,11,12,7.30
2017,01,19,11,13,7.30
2017,01,19,11,14,7.30
2017,01,19,11,15,7.30
2017,01,19,11,16,7.40
2017,01,19,11,17,7.40
2017,01,19,11,18,7.40
2017,01,19,11,19,7.40
2017,01,19,11,20,7.40
2017,01,19,11,21,7.40
2017,01,19,11,22,7.40
2017,01,19,11,23,7.40
2017,01,19,11,24,7.40
2017,01,19,11,25,7.40
2017,01,19,11,26,7.40
2017,01,19,11,27,7.40
2017,01,19,11,28,7.50
2017,01,19,11,29,7.50
2017,01,19,11,30,7.50
2017,01,19,11,31,7.50
2017,01,19,11,32,7.50
2017,01,19,11,33,7.50
2017,01,19,11,34,7.50
2017,01,19,11,35,7.50
2017,01,19,11,36,7.50
2017,01,19,11,37,7.60
2017,01,19,11,38,7.60
2017,01,19,11,39,7.60
2017,01,19,11,40,7.60
2017,01,19,11,41,7.60
2017,01,19,11,42,7.60
2017,01,19,11,43,7.60
2017,01,19,11,44,7.60
2017,01,19,11,45,7.60
2017,01,19,11,46,7.60
2017,01,19,11,47,7.60
2017,01,19,11,48,7.60
2017,01,19,11,49,7.60
2017,01,19,11,50,7.70
2017,01,19,11,51,7.70
2017,01,19,11,52,7.60
2017,01,19,11,53,7.60
2017,01,19,11,54,7.70
2017,01,19,11,55,7.70
2017,01,19,11,56,7.70
2017,01,19,11,57,7.70
2017,01,19,11,58,7.70
2017,01,19,11,59,7.80
2017,01,19,12,00,7.80
2017,01,19,12,01,7.80
2017,01,19,12,02,7.80
2017,01,19,12,03,7.80
2017,01,19,12,04,7.80
2017,01,19,12,05,7.80
2017,01,19,12,06,7.70
2017,01,19,12,07,7.70
2017,01,19,12,08,7.70
2017,01,19,12,09,7.80
2017,01,19,12,10,7.80
2017,01,19,12,11,7.80
2017,01,19,12,12,7.80
2017,01,19,12,13,7.80
2017,01,19,12,14,7.80
2017,01,19,12,15,7.80
2017,01,19,12,16,7.80
2017,01,19,12,17,7.70
2017,01,19,12,18,7.70
2017,01,19,12,19,7.70
2017,01,19,12,20,7.80
2017,01,19,12,21,7.80
2017,01,19,12,22,7.80
2017,01,19,12,23,7.80
2017,01,19,12,24,7.80
2017,01,19,12,25,7.80
2017,01,19,12,26,7.80
2017,01,19,12,27,7.80
2017,01,19,12,28,7.80
2017,01,19,12,29,7.80
2017,01,19,12,30,7.80
2017,01,19,12,31,7.90
2017,01,19,12,32,7.90
2017,01,19,12,33,8.00
2017,01,19,12,34,8.10
2017,01,19,12,35,8.10
2017,01,19,12,36,8.20
2017,01,19,12,37,8.20
2017,01,19,12,38,8.10
2017,01,19,12,39,8.20
2017,01,19,12,40,8.30
2017,01,19,12,41,8.30
2017,01,19,12,42,8.40
2017,01,19,12,43,8.40
2017,01,19,12,44,8.40
2017,01,19,12,45,8.40
2017,01,19,12,46,8.40
2017,01,19,12,47,8.40
2017,01,19,12,48,8.50
2017,01,19,12,49,8.50
2017,01,19,12,50,8.50
2017,01,19,12,51,8.50
2017,01,19,12,52,8.40
2017,01,19,12,53,8.40
2017,01,19,12,54,8.40
2017,01,19,12,55,8.40
2017,01,19,12,56,8.40
2017,01,19,12,57,8.50
2017,01,19,12,58,8.50
2017,01,19,12,59,8.50
2017,01,19,13,00,8.60
2017,01,19,13,01,8.60
2017,01,19,13,02,8.70
2017,01,19,13,03,8.70
2017,01,19,13,04,8.70
2017,01,19,13,05,8.70
2017,01,19,13,06,8.70
2017,01,19,13,07,8.70
2017,01,19,13,08,8.70
2017,01,19,13,09,8.80
2017,01,19,13,10,8.80
2017,01,19,13,11,8.90
2017,01,19,13,12,9.00
2017,01,19,13,13,9.10
2017,01,19,13,14,9.20
2017,01,19,13,15,9.20
2017,01,19,13,16,9.20
2017,01,19,13,17,9.20
2017,01,19,13,18,9.30
2017,01,19,13,19,9.40
2017,01,19,13,20,9.40
2017,01,19,13,21,9.40
2017,01,19,13,22,9.50
2017,01,19,13,23,9.50
2017,01,19,13,24,9.60
2017,01,19,13,25,9.60
2017,01,19,13,26,9.60
2017,01,19,13,27,9.60
2017,01,19,13,28,9.60
2017,01,19,13,29,9.60
2017,01,19,13,30,9.60
2017,01,19,13,31,9.50
2017,01,19,13,32,9.40
2017,01,19,13,33,9.40
2017,01,19,13,34,9.40
2017,01,19,13,35,9.30
2017,01,19,13,36,9.30
2017,01,19,13,37,9.30
2017,01,19,13,38,9.20
2017,01,19,13,39,9.20
2017,01,19,13,40,9.10
2017,01,19,13,41,9.10
2017,01,19,13,42,9.00
2017,01,19,13,43,8.90
2017,01,19,13,44,8.80
2017,01,19,13,45,8.70
2017,01,19,13,46,8.70
2017,01,19,13,47,8.70
2017,01,19,13,48,8.70
2017,01,19,13,49,8.70
2017,01,19,13,50,8.70
2017,01,19,13,51,8.70
2017,01,19,13,52,8.70
2017,01,19,13,53,8.70
2017,01,19,13,54,8.60
2017,01,19,13,55,8.60
2017,01,19,13,56,8.60
2017,01,19,13,57,8.60
2017,01,19,13,58,8.60
2017,01,19,13,59,8.60
2017,01,19,14,00,8.60
2017,01,19,14,01,8.60
2017,01,19,14,02,8.60
2017,01,19,14,03,8.60
2017,01,19,14,04,8.50
2017,01,19,14,05,8.50
2017,01,19,14,06,8.50
2017,01,19,14,07,8.50
2017,01,19,14,08,8.40
2017,01,19,14,09,8.40
2017,01,19,14,10,8.40
2017,01,19,14,11,8.40
2017,01,19,14,12,8.40
2017,01,19,14,13,8.30
2017,01,19,14,14,8.30
2017,01,19,14,15,8.30
2017,01,19,14,16,8.20
2017,01,19,14,17,8.20
2017,01,19,14,18,8.20
2017,01,19,14,19,8.20
2017,01,19,14,20,8.20
2017,01,19,14,21,8.20
2017,01,19,14,22,8.20
2017,01,19,14,23,8.20
2017,01,19,14,24,8.20
2017,01,19,14,25,8.20
2017,01,19,14,26,8.20
2017,01,19,14,27,8.20
2017,01,19,14,28,8.10
2017,01,19,14,29,8.10
2017,01,19,14,30,8.10
2017,01,19,14,31,8.10
2017,01,19,14,32,8.10
2017,01,19,14,33,8.10
2017,01,19,14,34,8.00
2017,01,19,14,35,8.00
2017,01,19,14,36,8.00
2017,01,19,14,37,8.00
2017,01,19,14,38,8.10
2017,01,19,14,39,8.10
2017,01,19,14,40,8.10
2017,01,19,14,41,8.10
2017,01,19,14,42,8.10
2017,01,19,14,43,8.10
2017,01,19,14,44,8.10
2017,01,19,14,45,8.10
2017,01,19,14,46,8.10
2017,01,19,14,47,8.10
2017,01,19,14,48,8.10
2017,01,19,14,49,8.10
2017,01,19,14,50,8.10
2017,01,19,14,51,8.10
2017,01,19,14,52,8.10
2017,01,19,14,53,8.10
2017,01,19,14,54,8.10
2017,01,19,14,55,8.00
2017,01,19,14,56,8.00
2017,01,19,14,57,8.00
2017,01,19,14,58,8.00
2017,01,19,14,59,8.00
2017,01,19,15,00,8.00
2017,01,19,15,01,8.10
2017,01,19,15,02,8.10
2017,01,19,15,03,8.10
2017,01,19,15,04,8.10
2017,01,19,15,05,8.10
2017,01,19,15,06,8.10
2017,01,19,15,07,8.10
2017,01,19,15,08,8.00
2017,01,19,15,09,8.00
2017,01,19,15,10,8.00
2017,01,19,15,11,8.00
2017,01,19,15,12,8.00
2017,01,19,15,13,8.00
2017,01,19,15,14,7.90
2017,01,19,15,15,7.90
2017,01,19,15,16,7.90
2017,01,19,15,17,7.90
2017,01,19,15,18,7.90
2017,01,19,15,19,7.90
2017,01,19,15,20,7.90
2017,01,19,15,21,7.90
2017,01,19,15,22,7.90
2017,01,19,15,23,7.90
2017,01,19,15,24,7.90
2017,01,19,15,25,7.90
2017,01,19,15,26,7.90
2017,01,19,15,27,7.90
2017,01,19,15,28,7.90
2017,01,19,15,29,7.90
2017,01,19,15,30,7.90
2017,01,19,15,31,7.90
2017,01,19,15,32,7.90
2017,01,19,15,33,8.00
2017,01,19,15,34,8.00
2017,01,19,15,35,8.00
2017,01,19,15,36,8.00
2017,01,19,15,37,8.00
2017,01,19,15,38,8.00
2017,01,19,15,39,7.90
2017,01,19,15,40,7.90
2017,01,19,15,41,7.90
2017,01,19,15,42,7.90
2017,01,19,15,43,7.90
2017,01,19,15,44,7.90
2017,01,19,15,45,7.90
2017,01,19,15,46,7.90
2017,01,19,15,47,7.90
2017,01,19,15,48,7.90
2017,01,19,15,49,7.90
2017,01,19,15,50,7.90
2017,01,19,15,51,7.90
2017,01,19,15,52,7.90
2017,01,19,15,53,7.90
2017,01,19,15,54,7.80
2017,01,19,15,55,7.80
2017,01,19,15,56,7.80
2017,01,19,15,57,7.80
2017,01,19,15,58,7.80
2017,01,19,15,59,7.90
2017,01,19,16,00,7.90
2017,01,19,16,01,7.90
2017,01,19,16,02,7.90
2017,01,19,16,03,7.90
2017,01,19,16,04,7.90
2017,01,19,16,05,7.80
2017,01,19,16,06,7.80
2017,01,19,16,07,7.80
2017,01,19,16,08,7.80
2017,01,19,16,09,7.90
2017,01,19,16,10,7.90
2017,01,19,16,11,7.90
2017,01,19,16,12,7.90
2017,01,19,16,13,7.90
2017,01,19,16,14,7.90
2017,01,19,16,15,7.90
2017,01,19,16,16,7.90
2017,01,19,16,17,7.90
2017,01,19,16,18,7.90
2017,01,19,16,19,7.90
2017,01,19,16,20,7.90
2017,01,19,16,21,7.90
2017,01,19,16,22,7.80
2017,01,19,16,23,7.80
2017,01,19,16,24,7.80
2017,01,19,16,25,7.80
2017,01,19,16,26,7.80
2017,01,19,16,27,7.80
2017,01,19,16,28,7.80
2017,01,19,16,29,7.70
2017,01,19,16,30,7.70
2017,01,19,16,31,7.70
2017,01,19,16,32,7.70
2017,01,19,16,33,7.70
2017,01,19,16,34,7.70
2017,01,19,16,35,7.70
2017,01,19,16,36,7.70
2017,01,19,16,37,7.70
2017,01,19,16,38,7.70
2017,01,19,16,39,7.70
2017,01,19,16,40,7.70
2017,01,19,16,41,7.70
2017,01,19,16,42,7.70
2017,01,19,16,43,7.70
2017,01,19,16,44,7.70
2017,01,19,16,45,7.70
2017,01,19,16,46,7.70
2017,01,19,16,47,7.70
2017,01,19,16,48,7.70
2017,01,19,16,49,7.70
2017,01,19,16,50,7.70
2017,01,19,16,51,7.70
2017,01,19,16,52,7.70
2017,01,19,16,53,7.70
2017,01,19,16,54,7.70
2017,01,19,16,55,7.60
2017,01,19,16,56,7.60
2017,01,19,16,57,7.60
2017,01,19,16,58,7.60
2017,01,19,16,59,7.60
2017,01,19,17,00,7.60
2017,01,19,17,01,7.60
2017,01,19,17,02,7.60
2017,01,19,17,03,7.60
2017,01,19,17,04,7.60
2017,01,19,17,05,7.60
2017,01,19,17,06,7.50
2017,01,19,17,07,7.60
2017,01,19,17,08,7.50
2017,01,19,17,09,7.60
2017,01,19,17,10,7.60
2017,01,19,17,11,7.50
2017,01,19,17,12,7.50
2017,01,19,17,13,7.50
2017,01,19,17,14,7.50
2017,01,19,17,15,7.50
2017,01,19,17,16,7.50
2017,01,19,17,17,7.40
2017,01,19,17,18,7.40
2017,01,19,17,19,7.40
2017,01,19,17,20,7.40
2017,01,19,17,21,7.40
2017,01,19,17,22,7.40
2017,01,19,17,23,7.40
2017,01,19,17,24,7.40
2017,01,19,17,25,7.30
2017,01,19,17,26,7.30
2017,01,19,17,27,7.30
2017,01,19,17,28,7.30
2017,01,19,17,29,7.30
2017,01,19,17,30,7.30
2017,01,19,17,31,7.30
2017,01,19,17,32,7.30
2017,01,19,17,33,7.30
2017,01,19,17,34,7.30
2017,01,19,17,35,7.30
2017,01,19,17,36,7.30
2017,01,19,17,37,7.30
2017,01,19,17,38,7.30
2017,01,19,17,39,7.30
2017,01,19,17,40,7.30
2017,01,19,17,41,7.30
2017,01,19,17,42,7.30
2017,01,19,17,43,7.30
2017,01,19,17,44,7.30
2017,01,19,17,45,7.30
2017,01,19,17,46,7.30
2017,01,19,17,47,7.30
2017,01,19,17,48,7.30
2017,01,19,17,49,7.30
2017,01,19,17,50,7.30
2017,01,19,17,51,7.30
2017,01,19,17,52,7.30
2017,01,19,17,53,7.30
2017,01,19,17,54,7.30
2017,01,19,17,55,7.30
2017,01,19,17,56,7.30
2017,01,19,17,57,7.30
2017,01,19,17,58,7.30
2017,01,19,17,59,7.30
2017,01,19,18,00,7.30
2017,01,19,18,01,7.30
2017,01,19,18,02,7.30
2017,01,19,18,03,7.20
2017,01,19,18,04,7.20
2017,01,19,18,05,7.20
2017,01,19,18,06,7.20
2017,01,19,18,07,7.20
2017,01,19,18,08,7.20
2017,01,19,18,09,7.20
2017,01,19,18,10,7.20
2017,01,19,18,11,7.20
2017,01,19,18,12,7.20
2017,01,19,18,13,7.20
2017,01,19,18,14,7.20
2017,01,19,18,15,7.20
2017,01,19,18,16,7.20
2017,01,19,18,17,7.20
2017,01,19,18,18,7.20
2017,01,19,18,19,7.20
2017,01,19,18,20,7.20
2017,01,19,18,21,7.20
2017,01,19,18,22,7.20
2017,01,19,18,23,7.20
2017,01,19,18,24,7.20
2017,01,19,18,25,7.20
2017,01,19,18,26,7.20
2017,01,19,18,27,7.30
2017,01,19,18,28,7.30
2017,01,19,18,29,7.30
2017,01,19,18,30,7.30
2017,01,19,18,31,7.30
2017,01,19,18,32,7.30
2017,01,19,18,33,7.30
2017,01,19,18,34,7.30
2017,01,19,18,35,7.30
2017,01,19,18,36,7.40
2017,01,19,18,37,7.40
2017,01,19,18,38,7.40
2017,01,19,18,39,7.40
2017,01,19,18,40,7.40
2017,01,19,18,41,7.40
2017,01,19,18,42,7.40
2017,01,19,18,43,7.40
2017,01,19,18,44,7.40
2017,01,19,18,45,7.40
2017,01,19,18,46,7.40
2017,01,19,18,47,7.40
2017,01,19,18,48,7.40
2017,01,19,18,49,7.40
2017,01,19,18,50,7.30
2017,01,19,18,51,7.30
2017,01,19,18,52,7.30
2017,01,19,18,53,7.30
2017,01,19,18,54,7.30
2017,01,19,18,55,7.30
2017,01,19,18,56,7.30
2017,01,19,18,57,7.30
2017,01,19,18,58,7.30
2017,01,19,18,59,7.30
2017,01,19,19,00,7.30
2017,01,19,19,01,7.30
2017,01,19,19,02,7.30
2017,01,19,19,03,7.30
2017,01,19,19,04,7.30
2017,01,19,19,05,7.30
2017,01,19,19,06,7.30
2017,01,19,19,07,7.30
2017,01,19,19,08,7.30
2017,01,19,19,09,7.30
2017,01,19,19,10,7.30
2017,01,19,19,11,7.30
2017,01,19,19,12,7.30
2017,01,19,19,13,7.30
2017,01,19,19,14,7.30
2017,01,19,19,15,7.30
2017,01,19,19,16,7.30
2017,01,19,19,17,7.30
2017,01,19,19,18,7.30
2017,01,19,19,19,7.30
2017,01,19,19,20,7.30
2017,01,19,19,21,7.30
2017,01,19,19,22,7.30
2017,01,19,19,23,7.30
2017,01,19,19,24,7.30
2017,01,19,19,25,7.30
2017,01,19,19,26,7.30
2017,01,19,19,27,7.40
2017,01,19,19,28,7.30
2017,01,19,19,29,7.30
2017,01,19,19,30,7.30
2017,01,19,19,31,7.30
2017,01,19,19,32,7.30
2017,01,19,19,33,7.30
2017,01,19,19,34,7.30
2017,01,19,19,35,7.30
2017,01,19,19,36,7.30
2017,01,19,19,37,7.20
2017,01,19,19,38,7.20
2017,01,19,19,39,7.20
2017,01,19,19,40,7.20
2017,01,19,19,41,7.20
2017,01,19,19,42,7.20
2017,01,19,19,43,7.20
2017,01,19,19,44,7.20
2017,01,19,19,45,7.20
2017,01,19,19,46,7.20
2017,01,19,19,47,7.20
2017,01,19,19,48,7.20
2017,01,19,19,49,7.20
2017,01,19,19,50,7.20
2017,01,19,19,51,7.20
2017,01,19,19,52,7.20
2017,01,19,19,53,7.20
2017,01,19,19,54,7.20
2017,01,19,19,55,7.20
2017,01,19,19,56,7.20
2017,01,19,19,57,7.20
2017,01,19,19,58,7.20
2017,01,19,19,59,7.20
2017,01,19,20,00,7.20
2017,01,19,20,01,7.20
2017,01,19,20,02,7.20
2017,01,19,20,03,7.20
2017,01,19,20,04,7.20
2017,01,19,20,05,7.20
2017,01,19,20,06,7.20
2017,01,19,20,07,7.20
2017,01,19,20,08,7.20
2017,01,19,20,09,7.20
2017,01,19,20,10,7.20
2017,01,19,20,11,7.20
2017,01,19,20,12,7.20
2017,01,19,20,13,7.20
2017,01,19,20,14,7.20
2017,01,19,20,15,7.20
2017,01,19,20,16,7.20
2017,01,19,20,17,7.20
2017,01,19,20,18,7.20
2017,01,19,20,19,7.20
2017,01,19,20,20,7.10
2017,01,19,20,21,7.10
2017,01,19,20,22,7.10
2017,01,19,20,23,7.10
2017,01,19,20,24,7.10
2017,01,19,20,25,7.10
2017,01,19,20,26,7.10
2017,01,19,20,27,7.10
2017,01,19,20,28,7.10
2017,01,19,20,29,7.10
2017,01,19,20,30,7.10
2017,01,19,20,31,7.10
2017,01,19,20,32,7.10
2017,01,19,20,33,7.10
2017,01,19,20,34,7.10
2017,01,19,20,35,7.10
2017,01,19,20,36,7.10
2017,01,19,20,37,7.10
2017,01,19,20,38,7.10
2017,01,19,20,39,7.10
2017,01,19,20,40,7.10
2017,01,19,20,41,7.10
2017,01,19,20,42,7.10
2017,01,19,20,43,7.10
2017,01,19,20,44,7.10
2017,01,19,20,45,7.10
2017,01,19,20,46,7.10
2017,01,19,20,47,7.10
2017,01,19,20,48,7.10
2017,01,19,20,49,7.10
2017,01,19,20,50,7.10
2017,01,19,20,51,7.10
2017,01,19,20,52,7.10
2017,01,19,20,53,7.10
2017,01,19,20,54,7.10
2017,01,19,20,55,7.10
2017,01,19,20,56,7.10
2017,01,19,20,57,7.10
2017,01,19,20,58,7.10
2017,01,19,20,59,7.10
2017,01,19,21,00,7.10
2017,01,19,21,01,7.10
2017,01,19,21,02,7.10
2017,01,19,21,03,7.10
2017,01,19,21,04,7.00
2017,01,19,21,05,7.00
2017,01,19,21,06,7.00
2017,01,19,21,07,7.00
2017,01,19,21,08,6.90
2017,01,19,21,09,6.90
2017,01,19,21,10,6.90
2017,01,19,21,11,6.90
2017,01,19,21,12,6.90
2017,01,19,21,13,6.90
2017,01,19,21,14,6.90
2017,01,19,21,15,6.80
2017,01,19,21,16,6.80
2017,01,19,21,17,6.80
2017,01,19,21,18,6.80
2017,01,19,21,19,6.80
2017,01,19,21,20,6.80
2017,01,19,21,21,6.70
2017,01,19,21,22,6.70
2017,01,19,21,23,6.70
2017,01,19,21,24,6.70
2017,01,19,21,25,6.70
2017,01,19,21,26,6.70
2017,01,19,21,27,6.70
2017,01,19,21,28,6.70
2017,01,19,21,29,6.70
2017,01,19,21,30,6.70
2017,01,19,21,31,6.70
2017,01,19,21,32,6.70
2017,01,19,21,33,6.70
2017,01,19,21,34,6.70
2017,01,19,21,35,6.70
2017,01,19,21,36,6.70
2017,01,19,21,37,6.70
2017,01,19,21,38,6.70
2017,01,19,21,39,6.70
2017,01,19,21,40,6.70
2017,01,19,21,41,6.70
2017,01,19,21,42,6.70
2017,01,19,21,43,6.70
2017,01,19,21,44,6.70
2017,01,19,21,45,6.70
2017,01,19,21,46,6.70
2017,01,19,21,47,6.70
2017,01,19,21,48,6.70
2017,01,19,21,49,6.70
2017,01,19,21,50,6.70
2017,01,19,21,51,6.70
2017,01,19,21,52,6.60
2017,01,19,21,53,6.60
2017,01,19,21,54,6.60
2017,01,19,21,55,6.60
2017,01,19,21,56,6.60
2017,01,19,21,57,6.60
2017,01,19,21,58,6.60
2017,01,19,21,59,6.60
2017,01,19,22,00,6.60
2017,01,19,22,01,6.60
2017,01,19,22,02,6.60
2017,01,19,22,03,6.70